Soldotna, AK

4:04 AM AKDT on August 18, 2017 (GMT -0800)
Soldotna

Weather History for PASX - March, 2014

Change the Weather History Date:

Tuesday, March 4, 2014

  Actual Average Record
Temperature  
Mean Temperature 35 °F -  
Max Temperature 37 °F 28 °F 43 °F (1957)
Min Temperature 33 °F 9 °F -38 °F (1971)
Degree Days  
Heating Degree Days 30    
Moisture  
Dew Point 25 °F    
Average Humidity 67    
Maximum Humidity 81    
Minimum Humidity 52    
Precipitation  
Precipitation 0.00 in - - ()
Sea Level Pressure  
Sea Level Pressure 29.80 in    
Wind  
Wind Speed 6 mph (South)    
Max Wind Speed 10 mph    
Max Gust Speed -    
Visibility 10 miles    
Events      
Averages and records for this station are not official NWS values.
T = Trace of Precipitation, MM = Missing Value Source: NWS Daily Summary

Daily Weather History Graph

Daily Weather History Graph

Search for Another Location

Airport or City:

Trip Planner

Search our weather history database for the weather conditions in past years. The results will help you decide how hot, cold, wet, or windy it might be!

Date:

Astronomy

Mar. 04, 2014 Rise Set
Actual Time 7:53 AM AKST 6:39 PM AKST
Civil Twilight 7:11 AM AKST 7:21 PM AKST
Nautical Twilight 6:22 AM AKST 8:10 PM AKST
Astronomical Twilight 5:32 AM AKST 9:00 PM AKST
Moon 8:40 AM AKST (3/4) No Moon Set
Length of Visible Light 12h 09m
Length of Day
10h 45m
Waxing Crescent, 16% of the Moon is Illuminated
Mar 4
Waxing Crescent
Mar 8
First Quarter
Mar 16
Full
Mar 23
Last Quarter
Mar 30
New

Hourly Weather History & Observations

Time (AKST) Temp. Windchill Dew Point Humidity Pressure Visibility Wind Dir Wind Speed Gust Speed Precip Events Conditions
12:16 AM 33.8 °F 27.7 °F 26.6 °F 75% 29.82 in 10.0 mi SE 6.9 mph - N/A   Overcast
12:36 AM 33.8 °F 27.0 °F 24.8 °F 70% 29.82 in 10.0 mi SSE 8.1 mph - N/A   Overcast
12:56 AM 33.8 °F 27.0 °F 24.8 °F 70% 29.82 in 10.0 mi SE 8.1 mph - N/A   Overcast
1:16 AM 33.8 °F 28.6 °F 24.8 °F 70% 29.82 in 10.0 mi SE 5.8 mph - N/A   Overcast
1:36 AM 33.8 °F 29.6 °F 24.8 °F 70% 29.82 in 10.0 mi SSE 4.6 mph - N/A   Overcast
1:56 AM 33.8 °F 28.6 °F 24.8 °F 70% 29.83 in 10.0 mi SE 5.8 mph - N/A   Overcast
2:16 AM 33.8 °F 28.6 °F 24.8 °F 70% 29.83 in 10.0 mi SSE 5.8 mph - N/A   Overcast
2:36 AM 33.8 °F 27.7 °F 24.8 °F 70% 29.83 in 10.0 mi SE 6.9 mph - N/A   Overcast
2:56 AM 33.8 °F 27.7 °F 24.8 °F 70% 29.82 in 10.0 mi SE 6.9 mph - N/A   Overcast
3:16 AM 35.6 °F 29.2 °F 24.8 °F 65% 29.82 in 10.0 mi SSE 8.1 mph - N/A   Overcast
3:36 AM 35.6 °F 29.9 °F 23.0 °F 60% 29.82 in 10.0 mi SSE 6.9 mph - N/A   Overcast
3:56 AM 35.6 °F 29.9 °F 23.0 °F 60% 29.82 in 10.0 mi SE 6.9 mph - N/A   Overcast
4:16 AM 35.6 °F 30.7 °F 23.0 °F 60% 29.82 in 10.0 mi SSE 5.8 mph - N/A   Overcast
4:36 AM 35.6 °F 30.7 °F 23.0 °F 60% 29.82 in 10.0 mi SSE 5.8 mph - N/A   Overcast
4:56 AM 35.6 °F 29.9 °F 23.0 °F 60% 29.82 in 10.0 mi SSE 6.9 mph - N/A   Overcast
5:16 AM 35.6 °F 29.9 °F 23.0 °F 60% 29.82 in 10.0 mi SSE 6.9 mph - N/A   Overcast
5:36 AM 35.6 °F 30.7 °F 23.0 °F 60% 29.82 in 10.0 mi SSE 5.8 mph - N/A   Overcast
5:56 AM 35.6 °F 32.8 °F 23.0 °F 60% 29.82 in 10.0 mi SSW 3.5 mph - N/A   Overcast
6:16 AM 35.6 °F 32.8 °F 23.0 °F 60% 29.82 in 10.0 mi SSE 3.5 mph - N/A   Overcast
6:36 AM 33.8 °F 30.8 °F 23.0 °F 65% 29.82 in 10.0 mi South 3.5 mph - N/A   Overcast
6:56 AM 33.8 °F - 23.0 °F 65% 29.82 in 10.0 mi Calm Calm - N/A   Overcast
7:16 AM 33.8 °F - 21.2 °F 60% 29.81 in 10.0 mi Calm Calm - N/A   Overcast
7:36 AM 33.8 °F - 21.2 °F 60% 29.81 in 10.0 mi Calm Calm - N/A   Overcast
7:56 AM 33.8 °F 30.8 °F 23.0 °F 65% 29.81 in 10.0 mi SE 3.5 mph - N/A   Overcast
8:16 AM 33.8 °F 28.6 °F 21.2 °F 60% 29.81 in 10.0 mi West 5.8 mph - N/A   Overcast
8:36 AM 33.8 °F 29.6 °F 23.0 °F 65% 29.81 in 10.0 mi WSW 4.6 mph - N/A   Overcast
8:56 AM 33.8 °F 30.8 °F 21.2 °F 60% 29.81 in 10.0 mi SSE 3.5 mph - N/A   Overcast
9:16 AM 35.6 °F 31.7 °F 21.2 °F 56% 29.81 in 10.0 mi South 4.6 mph - N/A   Overcast
9:36 AM 35.6 °F 29.9 °F 21.2 °F 56% 29.81 in 10.0 mi South 6.9 mph - N/A   Overcast
9:56 AM 35.6 °F 29.9 °F 21.2 °F 56% 29.81 in 10.0 mi SSE 6.9 mph - N/A   Overcast
10:16 AM 35.6 °F 29.9 °F 21.2 °F 56% 29.81 in 10.0 mi South 6.9 mph - N/A   Overcast
10:36 AM 35.6 °F 31.7 °F 21.2 °F 56% 29.81 in 10.0 mi South 4.6 mph - N/A   Overcast
10:56 AM 37.4 °F 32.1 °F 21.2 °F 52% 29.81 in 10.0 mi South 6.9 mph - N/A   Overcast
11:16 AM 37.4 °F 32.8 °F 21.2 °F 52% 29.81 in 10.0 mi WSW 5.8 mph - N/A   Overcast
11:36 AM 37.4 °F 32.1 °F 21.2 °F 52% 29.81 in 10.0 mi SSW 6.9 mph - N/A   Overcast
11:56 AM 37.4 °F 32.8 °F 21.2 °F 52% 29.81 in 10.0 mi SSW 5.8 mph - N/A   Overcast
12:16 PM 37.4 °F 32.1 °F 23.0 °F 56% 29.81 in 10.0 mi South 6.9 mph - N/A   Overcast
12:36 PM 37.4 °F 32.1 °F 24.8 °F 60% 29.81 in 10.0 mi WSW 6.9 mph - N/A   Overcast
12:56 PM 37.4 °F 34.9 °F 23.0 °F 56% 29.80 in 10.0 mi South 3.5 mph - N/A   Overcast
1:16 PM 37.4 °F 32.8 °F 23.0 °F 56% 29.80 in 10.0 mi South 5.8 mph - N/A   Overcast
1:36 PM 37.4 °F 30.3 °F 24.8 °F 60% 29.80 in 10.0 mi West 10.4 mph - N/A   Overcast
1:56 PM 35.6 °F 29.2 °F 28.4 °F 75% 29.80 in 10.0 mi WNW 8.1 mph - N/A   Overcast
2:16 PM 35.6 °F 31.7 °F 28.4 °F 75% 29.80 in 10.0 mi WNW 4.6 mph - N/A   Overcast
2:36 PM 35.6 °F 29.9 °F 28.4 °F 75% 29.79 in 10.0 mi West 6.9 mph - N/A   Overcast
2:56 PM 35.6 °F 28.6 °F 28.4 °F 75% 29.79 in 10.0 mi WSW 9.2 mph - N/A   Overcast
3:16 PM 35.6 °F 28.6 °F 28.4 °F 75% 29.79 in 10.0 mi West 9.2 mph - N/A   Overcast
3:36 PM 35.6 °F 29.9 °F 28.4 °F 75% 29.79 in 10.0 mi SW 6.9 mph - N/A   Overcast
3:56 PM 35.6 °F 29.2 °F 28.4 °F 75% 29.79 in 10.0 mi WSW 8.1 mph - N/A   Overcast
4:16 PM 35.6 °F 29.2 °F 28.4 °F 75% 29.78 in 10.0 mi SW 8.1 mph - N/A   Overcast
4:36 PM 35.6 °F 30.7 °F 28.4 °F 75% 29.78 in 10.0 mi SW 5.8 mph - N/A   Overcast
4:56 PM 35.6 °F 31.7 °F 28.4 °F 75% 29.78 in 10.0 mi WSW 4.6 mph - N/A   Overcast
5:16 PM 35.6 °F 28.0 °F 28.4 °F 75% 29.78 in 10.0 mi WSW 10.4 mph - N/A   Overcast
5:36 PM 35.6 °F 29.9 °F 28.4 °F 75% 29.77 in 10.0 mi West 6.9 mph - N/A   Overcast
5:56 PM 35.6 °F 30.7 °F 28.4 °F 75% 29.77 in 10.0 mi WSW 5.8 mph - N/A   Overcast
6:16 PM 35.6 °F 30.7 °F 28.4 °F 75% 29.77 in 10.0 mi SW 5.8 mph - N/A   Mostly Cloudy
6:36 PM 35.6 °F - 28.4 °F 75% 29.77 in 10.0 mi Calm Calm - N/A   Overcast
6:56 PM 33.8 °F 30.8 °F 28.4 °F 81% 29.77 in 10.0 mi SSW 3.5 mph - N/A   Overcast
7:16 PM 33.8 °F - 28.4 °F 81% 29.76 in 10.0 mi Calm Calm - N/A   Overcast
7:36 PM 33.8 °F 30.8 °F 28.4 °F 81% 29.76 in 10.0 mi South 3.5 mph - N/A   Overcast
7:56 PM 33.8 °F 30.8 °F 28.4 °F 81% 29.76 in 10.0 mi South 3.5 mph - N/A   Overcast
8:16 PM 33.8 °F 30.8 °F 28.4 °F 81% 29.76 in 10.0 mi SSE 3.5 mph - N/A   Overcast
8:36 PM 33.8 °F 29.6 °F 26.6 °F 75% 29.76 in 10.0 mi SSE 4.6 mph - N/A   Overcast
8:56 PM 33.8 °F 29.6 °F 26.6 °F 75% 29.76 in 10.0 mi SE 4.6 mph - N/A   Overcast
9:16 PM 33.8 °F 29.6 °F 26.6 °F 75% 29.76 in 10.0 mi South 4.6 mph - N/A   Overcast
9:36 PM 35.6 °F 29.9 °F 24.8 °F 65% 29.76 in 10.0 mi SSW 6.9 mph - N/A   Overcast
9:56 PM 35.6 °F 29.2 °F 24.8 °F 65% 29.75 in 10.0 mi South 8.1 mph - N/A   Overcast
10:16 PM 35.6 °F 29.2 °F 24.8 °F 65% 29.75 in 10.0 mi SSW 8.1 mph - N/A   Overcast
10:36 PM 35.6 °F 29.2 °F 23.0 °F 60% 29.75 in 10.0 mi South 8.1 mph - N/A   Overcast
10:56 PM 33.8 °F 27.7 °F 26.6 °F 75% 29.75 in 10.0 mi West 6.9 mph - N/A   Overcast
11:16 PM 33.8 °F - 26.6 °F 75% 29.75 in 10.0 mi Calm Calm - N/A   Overcast
11:36 PM 33.8 °F - 26.6 °F 75% 29.75 in 10.0 mi Calm Calm - N/A   Overcast
11:56 PM 33.8 °F 29.6 °F 26.6 °F 75% 29.75 in 10.0 mi West 4.6 mph - N/A   Overcast